KC5JIM Weather Reports


Display with metric or nautical units.
time (UTC)temp
F
wind
direction
speed
MPH
gust
MPH
rain 1hr
in
rain 24hr
in
rain mn
in
humidity
%
barometer
mb
20260903202237 87 45 2.0 7.0 0.00 0.00 0.00 43 1007.5
20260903201733 88 124 4.0 10.0 0.00 0.00 0.00 44 1007.8
20260903201229 88 72 5.0 9.0 0.00 0.00 0.00 45 1007.7
20260903200725 87 63 3.0 11.0 0.00 0.00 0.00 46 1008.2
20260903195717 88 0 0.0 7.0 0.00 0.00 0.00 45 1008.3
20260903195213 86 332 2.0 9.0 0.00 0.00 0.00 46 1008.5
20260903194709 86 241 0.0 3.0 0.00 0.00 0.00 46 1008.3
20260903194427 87 173 2.0 9.0 0.00 0.00 0.00 45 1008.5
20260903193702 87 155 4.0 9.0 0.00 0.00 0.00 46 1008.5
20260903193647 87 130 4.0 8.0 0.00 0.00 0.00 47 1008.8
20260903192915 86 192 4.0 8.0 0.00 0.00 0.00 47 1008.8
20260903192150 87 70 2.0 7.0 0.00 0.00 0.00 46 1008.5
20260903191645 86 41 1.0 7.0 0.00 0.00 0.00 47 1009.1
20260903191142 85 128 4.0 10.0 0.00 0.00 0.00 48 1009.3
20260903190638 86 109 3.0 9.0 0.00 0.00 0.00 47 1009.3
20260903190133 84 67 4.0 8.0 0.00 0.00 0.00 49 1009.7
20260903185629 84 25 4.0 5.0 0.00 0.00 0.00 48 1009.8
20260903185125 85 96 4.0 9.0 0.00 0.00 0.00 49 1009.6
20260903184843 85 154 6.0 9.0 0.00 0.00 0.00 49 1010.0
20260903184117 84 135 2.0 9.0 0.00 0.00 0.00 50 1009.9
20260903183613 85 103 10.0 10.0 0.00 0.00 0.00 49 1010.0
20260903183332 84 76 6.0 13.0 0.00 0.00 0.00 49 1010.3
20260903182605 85 103 6.0 13.0 0.00 0.00 0.00 49 1009.9
20260903182101 85 78 2.0 8.0 0.00 0.00 0.00 49 1010.3
20260903181821 83 158 2.0 5.0 0.00 0.00 0.00 50 1010.5
20260903181053 85 85 6.0 9.0 0.00 0.00 0.00 49 1010.6
20260903180549 85 111 4.0 9.0 0.00 0.00 0.00 50 1010.5
20260903180045 84 124 9.0 10.0 0.00 0.00 0.00 51 1010.4
20260903175802 84 68 3.0 6.0 0.00 0.00 0.00 51 1010.5
20260903175039 85 98 7.0 11.0 0.00 0.00 0.00 51 1010.5
20260903174758 84 68 3.0 7.0 0.00 0.00 0.00 51 1010.8
20260903174251 83 7 4.0 7.0 0.00 0.00 0.00 52 1011.0
20260903173526 83 60 2.0 6.0 0.00 0.00 0.00 52 1010.8
20260903173241 83 50 2.0 8.0 0.00 0.00 0.00 53 1011.1
20260903172518 83 104 4.0 8.0 0.00 0.00 0.00 52 1011.0
20260903172014 83 82 2.0 8.0 0.00 0.00 0.00 54 1011.0
20260903171730 83 114 4.0 7.0 0.00 0.00 0.00 54 1011.0
20260903171006 83 107 2.0 8.0 0.00 0.00 0.00 53 1011.1
20260903170502 82 126 1.0 3.0 0.00 0.00 0.00 55 1011.3
20260903165958 82 254 2.0 4.0 0.00 0.00 0.00 56 1011.2
20260903165454 82 65 3.0 3.0 0.00 0.00 0.00 54 1010.9
20260903164949 81 8 0.0 4.0 0.00 0.00 0.00 56 1011.4
20260903164446 82 97 2.0 6.0 0.00 0.00 0.00 56 1011.4
20260903163942 80 116 0.0 2.0 0.00 0.00 0.00 58 1011.6
20260903163438 81 119 2.0 6.0 0.00 0.00 0.00 58 1011.5
20260903162934 82 78 6.0 7.0 0.00 0.00 0.00 57 1011.4
20260903162654 80 145 2.0 3.0 0.00 0.00 0.00 57 1011.5
20260903161926 79 113 1.0 5.0 0.00 0.00 0.00 59 1011.8
20260903161422 80 22 2.0 5.0 0.00 0.00 0.00 58 1011.7
20260903160918 81 87 4.0 8.0 0.00 0.00 0.00 58 1011.4
20260903160413 80 255 1.0 5.0 0.00 0.00 0.00 58 1011.7
20260903160133 80 10 1.0 6.0 0.00 0.00 0.00 59 1011.9
20260903155405 79 57 0.0 4.0 0.00 0.00 0.00 60 1012.0
20260903154902 80 27 3.0 5.0 0.00 0.00 0.00 60 1011.7
20260903154357 79 306 2.0 2.0 0.00 0.00 0.00 60 1011.9
20260903153853 80 19 3.0 5.0 0.00 0.00 0.00 60 1011.9
20260903153349 79 348 0.0 5.0 0.00 0.00 0.00 61 1012.0
20260903152845 80 349 2.0 5.0 0.00 0.00 0.00 61 1011.7
20260903152603 79 343 0.0 2.0 0.00 0.00 0.00 62 1011.8
20260903151837 79 56 2.0 5.0 0.00 0.00 0.00 62 1011.8
20260903151333 80 350 2.0 4.0 0.00 0.00 0.00 62 1011.9
20260903150829 79 31 2.0 5.0 0.00 0.00 0.00 63 1011.8
20260903150545 79 295 0.0 4.0 0.00 0.00 0.00 63 1011.8
20260903145821 79 37 3.0 5.0 0.00 0.00 0.00 63 1012.0
20260903145317 79 356 1.0 7.0 0.00 0.00 0.00 64 1011.9
20260903144803 80 83 6.0 7.0 0.00 0.00 0.00 63 1011.2
20260903144259 79 313 0.0 6.0 0.00 0.00 0.00 65 1011.2
20260903144019 79 85 3.0 6.0 0.00 0.00 0.00 65 1011.2
20260903143512 79 352 1.0 3.0 0.00 0.00 0.00 66 1011.2
20260903142747 79 28 3.0 5.0 0.00 0.00 0.00 66 1011.2
20260903142243 79 102 2.0 4.0 0.00 0.00 0.00 66 1011.1
20260903141739 79 43 3.0 7.0 0.00 0.00 0.00 66 1011.2
20260903141235 79 335 2.0 4.0 0.00 0.00 0.00 66 1011.2
20260903140731 79 89 0.0 3.0 0.00 0.00 0.00 66 1011.0
20260903140227 79 77 0.0 2.0 0.00 0.00 0.00 66 1011.1
20260903135723 79 121 2.0 4.0 0.00 0.00 0.00 66 1011.2
20260903135218 79 70 2.0 4.0 0.00 0.00 0.00 66 1011.0
20260903134714 79 132 1.0 3.0 0.00 0.00 0.00 66 1010.8
20260903134210 79 108 2.0 6.0 0.00 0.00 0.00 66 1011.0
20260903133706 79 106 4.0 5.0 0.00 0.00 0.00 66 1010.7
20260903133202 79 88 2.0 4.0 0.00 0.00 0.00 66 1010.7
20260903132658 79 111 3.0 5.0 0.00 0.00 0.00 66 1010.6
20260903132154 79 100 3.0 5.0 0.00 0.00 0.00 66 1010.4
20260903131650 79 151 5.0 6.0 0.00 0.00 0.00 65 1010.6
20260903131146 79 147 2.0 6.0 0.00 0.00 0.00 65 1010.7
20260903130642 79 125 2.0 4.0 0.00 0.00 0.00 64 1010.3
20260903130358 79 81 2.0 5.0 0.00 0.00 0.00 64 1010.2
20260903125634 79 58 3.0 7.0 0.00 0.00 0.00 64 1010.2
20260903125130 79 40 2.0 5.0 0.00 0.00 0.00 64 1009.8
20260903124626 79 11 5.0 6.0 0.00 0.00 0.00 64 1009.8
20260903124122 79 43 2.0 5.0 0.00 0.00 0.00 64 1009.9
20260903123618 79 54 2.0 5.0 0.00 0.00 0.00 64 1009.9
20260903123114 79 315 0.0 2.0 0.00 0.00 0.00 64 1009.8
20260903122610 79 48 2.0 4.0 0.00 0.00 0.00 64 1009.7
20260903122106 79 118 2.0 4.0 0.00 0.00 0.00 64 1009.5
20260903121602 79 84 1.0 3.0 0.00 0.00 0.00 64 1009.7
20260903121058 79 356 1.0 3.0 0.00 0.00 0.00 63 1009.8
20260903120554 79 77 2.0 4.0 0.00 0.00 0.00 63 1009.7
20260903120313 79 99 2.0 4.0 0.00 0.00 0.00 63 1009.5
20260903115811 79 8 3.0 5.0 0.00 0.00 0.00 63 1009.5
20260903115044 79 46 4.0 6.0 0.00 0.00 0.00 64 1009.6
20260903114540 78 119 1.0 3.0 0.00 0.00 0.00 66 1009.6
20260903114036 78 330 1.0 3.0 0.00 0.00 0.00 67 1009.6
20260903113532 79 234 2.0 3.0 0.00 0.00 0.00 67 1009.5
20260903113028 79 167 2.0 3.0 0.00 0.00 0.00 66 1009.4
20260903112524 79 162 3.0 4.0 0.00 0.00 0.00 66 1009.4
20260903112241 79 177 2.0 4.0 0.00 0.00 0.00 66 1009.4
20260903111516 79 207 2.0 4.0 0.00 0.00 0.00 66 1009.5
20260903111232 79 198 2.0 6.0 0.00 0.00 0.00 66 1009.5
20260903110508 79 197 2.0 4.0 0.00 0.00 0.00 66 1009.4
20260903110005 79 182 1.0 3.0 0.00 0.00 0.00 66 1009.5
20260903105501 79 214 3.0 4.0 0.00 0.00 0.00 66 1009.5
20260903104957 79 267 1.0 2.0 0.00 0.00 0.00 65 1009.5
20260903104453 79 243 0.0 2.0 0.00 0.00 0.00 64 1009.5
20260903103949 79 49 0.0 3.0 0.00 0.00 0.00 64 1009.7
20260903103445 79 52 2.0 4.0 0.00 0.00 0.00 64 1009.8
20260903102941 79 76 2.0 6.0 0.00 0.00 0.00 64 1009.8
20260903102437 79 44 1.0 3.0 0.00 0.00 0.00 64 1009.7
20260903101933 80 56 2.0 7.0 0.00 0.00 0.00 64 1009.9
20260903101429 80 65 2.0 6.0 0.00 0.00 0.00 64 1009.9
20260903100925 80 65 2.0 6.0 0.00 0.00 0.00 64 1009.9
20260903100421 80 63 4.0 8.0 0.00 0.00 0.00 64 1009.8
20260903095917 80 40 2.0 6.0 0.00 0.00 0.00 64 1010.1
20260903095412 80 92 0.0 8.0 0.00 0.00 0.00 64 1009.9
20260903094908 80 76 2.0 6.0 0.00 0.00 0.00 64 1009.9
20260903094404 80 72 3.0 7.0 0.00 0.00 0.00 64 1009.7
20260903093900 80 73 3.0 8.0 0.00 0.00 0.00 64 1009.4
20260903093356 80 96 8.0 10.0 0.00 0.00 0.00 64 1009.8
20260903092852 80 75 3.0 8.0 0.00 0.00 0.00 64 1009.5
20260903092348 80 23 4.0 6.0 0.00 0.00 0.00 64 1009.5
20260903091844 80 65 2.0 8.0 0.00 0.00 0.00 64 1009.6
20260903091340 80 11 6.0 10.0 0.00 0.00 0.00 64 1009.6
20260903090836 80 46 5.0 11.0 0.00 0.00 0.00 64 1009.7
20260903090332 80 35 3.0 8.0 0.00 0.00 0.00 64 1009.6
20260903085828 80 56 1.0 4.0 0.00 0.00 0.00 64 1009.7
20260903085325 80 66 2.0 6.0 0.00 0.00 0.00 63 1009.5
20260903084821 80 92 4.0 5.0 0.00 0.00 0.00 63 1009.8
20260903084317 80 57 3.0 5.0 0.00 0.00 0.00 63 1009.7
20260903083813 80 80 1.0 5.0 0.00 0.00 0.00 63 1009.7
20260903083309 80 74 3.0 7.0 0.00 0.00 0.00 63 1009.6
20260903083029 80 55 0.0 8.0 0.00 0.00 0.00 63 1009.6
20260903082301 80 69 2.0 5.0 0.00 0.00 0.00 63 1009.6
20260903081757 81 79 6.0 7.0 0.00 0.00 0.00 62 1009.5
20260903081742 81 78 2.0 5.0 0.00 0.00 0.00 62 1009.5
20260903080749 81 51 4.0 5.0 0.00 0.00 0.00 62 1009.5
20260903080244 81 36 2.0 4.0 0.00 0.00 0.00 61 1009.4
20260903080001 81 97 2.0 4.0 0.00 0.00 0.00 61 1009.6
20260903075236 81 24 0.0 4.0 0.00 0.00 0.00 61 1009.5
20260903074732 81 63 2.0 6.0 0.00 0.00 0.00 61 1009.4
20260903074450 81 48 2.0 6.0 0.00 0.00 0.00 60 1009.6
20260903073724 81 24 1.0 5.0 0.00 0.00 0.00 60 1009.5
20260903073220 82 29 6.0 10.0 0.00 0.00 0.00 60 1009.6
20260903073208 82 60 1.0 7.0 0.00 0.00 0.00 60 1009.8
20260903072212 82 39 1.0 4.0 0.00 0.00 0.00 60 1009.8
20260903071708 82 25 2.0 7.0 0.00 0.00 0.00 60 1009.7
20260903071204 82 45 4.0 9.0 0.00 0.00 0.00 60 1009.6
20260903070700 82 63 4.0 7.0 0.00 0.00 0.00 60 1009.6
20260903070156 82 49 3.0 6.0 0.00 0.00 0.00 60 1009.6
20260903065653 82 70 5.0 5.0 0.00 0.00 0.00 60 1009.5
20260903065408 82 74 2.0 4.0 0.00 0.00 0.00 59 1009.6
20260903064645 82 24 4.0 5.0 0.00 0.00 0.00 59 1009.3
20260903064141 82 0 2.0 8.0 0.00 0.00 0.00 59 1009.3
20260903063857 82 355 3.0 7.0 0.00 0.00 0.00 59 1009.4
20260903063133 82 343 2.0 3.0 0.00 0.00 0.00 59 1009.3
20260903062629 82 24 3.0 5.0 0.00 0.00 0.00 59 1009.7
20260903062125 82 311 0.0 3.0 0.00 0.00 0.00 59 1009.6
20260903061621 82 60 0.0 2.0 0.00 0.00 0.00 59 1009.8
20260903061336 82 315 0.0 3.0 0.00 0.00 0.00 59 1009.6
20260903060613 82 57 2.0 4.0 0.00 0.00 0.00 58 1009.7
20260903060109 83 31 2.0 6.0 0.00 0.00 0.00 58 1009.5
20260903055825 83 353 3.0 4.0 0.00 0.00 0.00 57 1009.6
20260903055101 83 67 2.0 2.0 0.00 0.00 0.00 57 1009.7
20260903054556 83 80 3.0 6.0 0.00 0.00 0.00 56 1009.7
20260903054052 83 87 2.0 3.0 0.00 0.00 0.00 55 1010.0
20260903053548 83 37 2.0 4.0 0.00 0.00 0.00 55 1009.7
20260903053044 84 72 2.0 7.0 0.00 0.00 0.00 54 1009.8
20260903052540 84 91 5.0 8.0 0.00 0.00 0.00 53 1009.6
20260903052036 84 84 1.0 8.0 0.00 0.00 0.00 52 1009.7
20260903051532 85 53 4.0 8.0 0.00 0.00 0.00 50 1009.7
20260903051028 85 124 6.0 10.0 0.00 0.00 0.00 50 1009.9
20260903050524 85 192 3.0 4.0 0.00 0.00 0.00 50 1009.8
20260903050020 85 167 2.0 3.0 0.00 0.00 0.00 49 1009.7
20260903045516 85 98 0.0 2.0 0.00 0.00 0.00 49 1009.7
20260903045012 85 97 2.0 5.0 0.00 0.00 0.00 49 1009.6
20260903044509 85 58 1.0 4.0 0.00 0.00 0.00 49 1009.6
20260903044005 85 37 3.0 4.0 0.00 0.00 0.00 49 1009.7
20260903043501 85 44 3.0 3.0 0.00 0.00 0.00 49 1009.5
20260903042956 85 101 0.0 3.0 0.00 0.00 0.00 49 1009.5
20260903042453 85 30 2.0 5.0 0.00 0.00 0.00 49 1009.5
20260903041948 85 10 1.0 5.0 0.00 0.00 0.00 49 1009.4
20260903041445 85 80 4.0 6.0 0.00 0.00 0.00 49 1009.5
20260903040940 85 81 2.0 3.0 0.00 0.00 0.00 49 1009.6
20260903040436 85 53 3.0 6.0 0.00 0.00 0.00 49 1009.3
20260903035932 85 47 2.0 5.0 0.00 0.00 0.00 50 1009.5
20260903035428 85 48 2.0 5.0 0.00 0.00 0.00 49 1009.3
20260903034924 85 32 3.0 9.0 0.00 0.00 0.00 49 1009.4
20260903034421 85 26 3.0 7.0 0.00 0.00 0.00 49 1009.5
20260903033916 85 44 4.0 8.0 0.00 0.00 0.00 48 1009.5
20260903033636 85 31 2.0 5.0 0.00 0.00 0.00 48 1009.4
20260903032908 85 42 3.0 7.0 0.00 0.00 0.00 48 1009.5
20260903032404 85 356 0.0 4.0 0.00 0.00 0.00 47 1009.3
20260903031901 86 358 2.0 3.0 0.00 0.00 0.00 47 1009.2
20260903031356 86 339 0.0 4.0 0.00 0.00 0.00 46 1009.3
20260903030852 86 56 2.0 6.0 0.00 0.00 0.00 46 1009.2
20260903030348 86 346 4.0 4.0 0.00 0.00 0.00 47 1009.1
20260903030106 85 60 1.0 3.0 0.00 0.00 0.00 47 1009.1
20260903025341 86 15 2.0 5.0 0.00 0.00 0.00 47 1009.0
20260903024837 86 14 4.0 6.0 0.00 0.00 0.00 46 1009.0
20260903024333 86 353 2.0 5.0 0.00 0.00 0.00 46 1009.0
20260903023829 86 8 2.0 4.0 0.00 0.00 0.00 46 1008.8
20260903023325 86 356 2.0 4.0 0.00 0.00 0.00 46 1008.8
20260903022821 86 333 0.0 2.0 0.00 0.00 0.00 46 1008.8
20260903022317 86 62 0.0 2.0 0.00 0.00 0.00 46 1008.7
20260903021813 86 40 2.0 4.0 0.00 0.00 0.00 46 1008.7
20260903021309 86 44 0.0 3.0 0.00 0.00 0.00 46 1008.7
20260903020805 87 73 2.0 3.0 0.00 0.00 0.00 46 1009.1
20260903020522 87 77 2.0 3.0 0.00 0.00 0.00 46 1008.7
20260903015757 87 207 3.0 4.0 0.00 0.00 0.00 46 1008.9
20260903015513 87 139 2.0 5.0 0.00 0.00 0.00 47 1009.0
20260903015011 87 57 2.0 5.0 0.00 0.00 0.00 47 1008.7
20260903014245 87 75 3.0 6.0 0.00 0.00 0.00 47 1008.9
20260903013741 87 68 1.0 5.0 0.00 0.00 0.00 46 1008.8
20260903013237 88 121 3.0 6.0 0.00 0.00 0.00 46 1008.8
20260903012733 88 77 4.0 7.0 0.00 0.00 0.00 45 1008.7
20260903012229 88 85 5.0 13.0 0.00 0.00 0.00 45 1008.8
20260903011725 88 110 7.0 11.0 0.00 0.00 0.00 45 1008.8
20260903011221 88 86 3.0 11.0 0.00 0.00 0.00 45 1008.9
20260903010717 88 52 4.0 12.0 0.00 0.00 0.00 44 1008.7
20260903010213 89 69 4.0 10.0 0.00 0.00 0.00 44 1008.7
20260903005709 89 96 7.0 15.0 0.00 0.00 0.00 44 1008.7
20260903005205 89 84 10.0 12.0 0.00 0.00 0.00 43 1008.7
20260903004701 90 77 8.0 13.0 0.00 0.00 0.00 43 1008.6
20260903004157 90 98 8.0 15.0 0.00 0.00 0.00 41 1008.5
20260903003653 90 93 5.0 8.0 0.00 0.00 0.00 42 1008.6
20260903003149 90 68 5.0 8.0 0.00 0.00 0.00 41 1008.6
20260903002645 91 106 11.0 13.0 0.00 0.00 0.00 40 1008.6
20260903002141 90 118 3.0 9.0 0.00 0.00 0.00 41 1008.7
20260903001637 90 94 9.0 10.0 0.00 0.00 0.00 41 1008.8
20260903001133 90 143 4.0 11.0 0.00 0.00 0.00 42 1008.9
20260903000629 89 125 5.0 7.0 0.00 0.00 0.00 42 1009.0
20260903000125 89 91 4.0 8.0 0.00 0.00 0.00 42 1009.1
20260902235621 90 96 4.0 13.0 0.00 0.00 0.00 41 1008.8
20260902235117 90 84 10.0 14.0 0.00 0.00 0.00 41 1008.5
20260902234613 91 95 9.0 13.0 0.00 0.00 0.00 41 1008.7
20260902234109 90 120 4.0 11.0 0.00 0.00 0.00 41 1008.7
20260902233605 91 108 12.0 16.0 0.00 0.00 0.00 41 1008.9
20260902233100 90 31 7.0 13.0 0.00 0.00 0.00 42 1008.7
20260902232556 91 73 4.0 14.0 0.00 0.00 0.00 41 1008.7
20260902232053 90 95 4.0 9.0 0.00 0.00 0.00 41 1008.9
20260902231548 90 96 8.0 14.0 0.00 0.00 0.00 41 1009.0
20260902231045 91 107 6.0 9.0 0.00 0.00 0.00 41 1009.1
20260902230541 91 101 8.0 15.0 0.00 0.00 0.00 42 1009.1
20260902230301 90 95 5.0 11.0 0.00 0.00 0.00 43 1009.1
20260902225533 90 86 8.0 16.0 0.00 0.00 0.00 43 1009.3
20260902225029 90 28 8.0 15.0 0.00 0.00 0.00 43 1009.0
20260902224525 90 103 5.0 12.0 0.00 0.00 0.00 43 1009.3
20260902224020 89 106 10.0 13.0 0.00 0.00 0.00 43 1009.2
20260902223517 89 86 11.0 13.0 0.00 0.00 0.00 44 1009.2
20260902223233 89 80 14.0 16.0 0.00 0.00 0.00 43 1009.4
20260902222509 88 82 9.0 18.0 0.00 0.00 0.00 43 1009.5
20260902222005 89 77 11.0 12.0 0.00 0.00 0.00 43 1009.3
20260902221501 87 76 8.0 15.0 0.00 0.00 0.00 44 1009.6
20260902221449 87 101 4.0 11.0 0.00 0.00 0.00 46 1009.6
20260902220452 87 68 6.0 8.0 0.00 0.00 0.00 47 1009.6
20260902215949 88 97 6.0 13.0 0.00 0.00 0.00 47 1009.6
20260902215444 90 117 7.0 15.0 0.00 0.00 0.00 46 1009.7
20260902214940 90 120 2.0 10.0 0.00 0.00 0.00 41 1009.7
20260902214436 90 131 4.0 10.0 0.00 0.00 0.00 41 1009.7
20260902213932 90 125 2.0 8.0 0.00 0.00 0.00 40 1009.6
20260902213429 90 114 2.0 7.0 0.00 0.00 0.00 41 1009.6
20260902212925 90 143 3.0 11.0 0.00 0.00 0.00 41 1009.4
20260902212420 90 124 3.0 12.0 0.00 0.00 0.00 40 1009.6
20260902212138 90 154 6.0 14.0 0.00 0.00 0.00 40 1009.5
20260902211412 90 147 3.0 11.0 0.00 0.00 0.00 40 1009.7
20260902210908 90 121 9.0 14.0 0.00 0.00 0.00 40 1009.7
20260902210404 90 153 5.0 11.0 0.00 0.00 0.00 39 1009.6
20260902210120 91 141 14.0 17.0 0.00 0.00 0.00 39 1009.6
20260902205356 90 145 7.0 12.0 0.00 0.00 0.00 40 1009.4
20260902205116 89 188 3.0 8.0 0.00 0.00 0.00 40 1009.5
20260902204608 90 171 12.0 12.0 0.00 0.00 0.00 40 1009.7
20260902204106 90 193 5.0 14.0 0.00 0.00 0.00 40 1009.8
20260902203340 91 161 9.0 12.0 0.00 0.00 0.00 39 1009.8
20260902202836 90 163 2.0 13.0 0.00 0.00 0.00 40 1009.8